Location: La Chapelle
(48.3135°N, 1.3085°W)
Time: 02:47:52
(UTC+00:00)

SL-16 R/B - Pass Details

Date: 03 March 2021
Orbit: 842 x 846 km, 71.0° (Epoch: 12 April)

Event Time Altitude Azimuth Distance (km) Brightness Sun altitude
Rises 19:30:19 0° 226° (SW) 3,392 5.9 -17.0°
Reaches altitude 10° 19:32:51 10° 232° (SW) 2,461 5.2 -17.4°
Maximum altitude 19:38:17 47° 305° (NW) 1,115 3.2 -18.3°
Drops below altitude 10° 19:43:46 10° 19° (NNE) 2,478 4.6 -19.2°
Sets 19:46:20 0° 26° (NNE) 3,417 5.2 -19.6°
